VLG25AM LEBL-LEMG

Flight info

Callsign VLG25AM
Flight time 1h 17m
Altitude 31000
Route SENIA Z596 NEXAS N975 ADUXO N869 BLN
Aircraft A321/M-SDE3FGHIRWY/LB1

Departure

Time 2026-05-08 08:46
Airport Josep Tarradellas Barcelona-El Prat Airport (LEBL)

Arrival

Time 2026-05-08 10:03
Airport Málaga-Costa del Sol Airport (LEMG)
Time Latitude Longitude Altitude Speed Heading
2026-05-08 08:29 41.29151 2.07950 3 ft 0 kts 151°
2026-05-08 08:36 41.29158 2.07945 3 ft 4 kts 152°
2026-05-08 08:37 41.29183 2.07929 4 ft 4 kts 156°
2026-05-08 08:37 41.29205 2.07916 4 ft 4 kts 143°
2026-05-08 08:37 41.29217 2.07893 6 ft 4 kts 85°
2026-05-08 08:37 41.29212 2.07865 3 ft 1 kts 65°
2026-05-08 08:39 41.29217 2.07880 3 ft 5 kts 65°
2026-05-08 08:40 41.29246 2.07965 3 ft 15 kts 65°
2026-05-08 08:40 41.29293 2.08103 3 ft 17 kts 65°
2026-05-08 08:40 41.29342 2.08245 3 ft 17 kts 65°
2026-05-08 08:40 41.29350 2.08387 3 ft 16 kts 134°
2026-05-08 08:41 41.29248 2.08454 3 ft 17 kts 155°
2026-05-08 08:41 41.29143 2.08516 3 ft 16 kts 156°
2026-05-08 08:41 41.29039 2.08579 8 ft 16 kts 155°
2026-05-08 08:41 41.28936 2.08640 7 ft 18 kts 156°
2026-05-08 08:42 41.28875 2.08762 4 ft 18 kts 73°
2026-05-08 08:42 41.28927 2.08921 3 ft 20 kts 65°
2026-05-08 08:42 41.28985 2.09090 3 ft 20 kts 66°
2026-05-08 08:42 41.29043 2.09258 3 ft 20 kts 65°
2026-05-08 08:43 41.29102 2.09430 3 ft 20 kts 66°
2026-05-08 08:43 41.29161 2.09603 3 ft 21 kts 64°
2026-05-08 08:43 41.29220 2.09776 3 ft 21 kts 64°
2026-05-08 08:43 41.29277 2.09925 3 ft 15 kts 54°
2026-05-08 08:44 41.29323 2.10047 4 ft 15 kts 78°
2026-05-08 08:44 41.29300 2.10180 3 ft 15 kts 112°
2026-05-08 08:44 41.29267 2.10285 4 ft 6 kts 112°
2026-05-08 08:44 41.29230 2.10322 5 ft 8 kts 186°
2026-05-08 08:45 41.29196 2.10256 5 ft 11 kts 245°
2026-05-08 08:45 41.29148 2.10116 5 ft 48 kts 245°
2026-05-08 08:45 41.28911 2.09429 6 ft 114 kts 245°
2026-05-08 08:45 41.28507 2.08259 12 ft 167 kts 245°
2026-05-08 08:46 41.27998 2.06793 532 ft 171 kts 245°
2026-05-08 08:46 41.27223 2.05626 1157 ft 177 kts 203°
2026-05-08 08:46 41.25974 2.05367 1415 ft 191 kts 179°
2026-05-08 08:46 41.24576 2.05411 1600 ft 211 kts 176°
2026-05-08 08:47 41.23031 2.05513 1761 ft 235 kts 175°
2026-05-08 08:47 41.21321 2.05602 2132 ft 253 kts 177°
2026-05-08 08:47 41.19546 2.05643 2781 ft 257 kts 178°
2026-05-08 08:47 41.17747 2.05537 3457 ft 262 kts 191°
2026-05-08 08:48 41.16040 2.04645 4137 ft 267 kts 205°
2026-05-08 08:48 41.14379 2.03525 4857 ft 269 kts 206°
2026-05-08 08:48 41.12729 2.02324 5549 ft 272 kts 214°
2026-05-08 08:48 41.11423 2.00499 6219 ft 277 kts 239°
2026-05-08 08:49 41.10747 1.98098 6850 ft 281 kts 255°
2026-05-08 08:49 41.10271 1.95575 7510 ft 283 kts 255°
2026-05-08 08:49 41.09802 1.93029 8195 ft 285 kts 255°
2026-05-08 08:49 41.09332 1.90468 8871 ft 286 kts 255°
2026-05-08 08:50 41.08854 1.87898 9544 ft 288 kts 255°
2026-05-08 08:50 41.08368 1.85306 10185 ft 290 kts 255°
2026-05-08 08:50 41.07881 1.82699 10794 ft 293 kts 255°
2026-05-08 08:50 41.07389 1.80075 11393 ft 295 kts 255°
2026-05-08 08:51 41.06889 1.77433 11999 ft 297 kts 255°
2026-05-08 08:51 41.06391 1.74799 12557 ft 302 kts 255°
2026-05-08 08:51 41.05864 1.72010 12690 ft 322 kts 255°
2026-05-08 08:51 41.05306 1.69052 12828 ft 340 kts 255°
2026-05-08 08:52 41.04720 1.65935 12960 ft 357 kts 255°
2026-05-08 08:52 41.04103 1.62663 13090 ft 374 kts 255°
2026-05-08 08:52 41.03456 1.59250 13274 ft 388 kts 255°
2026-05-08 08:52 41.02791 1.55753 13727 ft 394 kts 255°
2026-05-08 08:53 41.02118 1.52215 14238 ft 398 kts 255°
2026-05-08 08:53 41.01441 1.48655 14772 ft 400 kts 255°
2026-05-08 08:53 41.00755 1.45076 15342 ft 402 kts 255°
2026-05-08 08:53 41.00066 1.41486 15917 ft 403 kts 255°
2026-05-08 08:54 40.99374 1.37883 16481 ft 405 kts 255°
2026-05-08 08:54 40.98678 1.34261 17026 ft 406 kts 255°
2026-05-08 08:54 40.97981 1.30631 17557 ft 408 kts 255°
2026-05-08 08:54 40.97279 1.26988 18081 ft 409 kts 255°
2026-05-08 08:55 40.96573 1.23334 18542 ft 411 kts 255°
2026-05-08 08:55 40.95860 1.19660 18959 ft 413 kts 255°
2026-05-08 08:55 40.95145 1.15981 19360 ft 415 kts 255°
2026-05-08 08:55 40.94422 1.12271 19758 ft 417 kts 255°
2026-05-08 08:56 40.93697 1.08549 20144 ft 419 kts 255°
2026-05-08 08:56 40.92966 1.04800 20539 ft 422 kts 254°
2026-05-08 08:56 40.92231 1.01032 20922 ft 424 kts 254°
2026-05-08 08:56 40.91490 0.97252 21297 ft 426 kts 254°
2026-05-08 08:57 40.90744 0.93452 21672 ft 428 kts 254°
2026-05-08 08:57 40.89993 0.89633 22020 ft 431 kts 253°
2026-05-08 08:57 40.89234 0.85787 22377 ft 433 kts 253°
2026-05-08 08:57 40.88470 0.81928 22731 ft 435 kts 253°
2026-05-08 08:58 40.87701 0.78048 23079 ft 438 kts 253°
2026-05-08 08:58 40.87058 0.74104 23410 ft 442 kts 260°
2026-05-08 08:58 40.86891 0.70031 23710 ft 447 kts 268°
2026-05-08 08:58 40.86933 0.65918 24004 ft 449 kts 268°
2026-05-08 08:59 40.86972 0.61785 24311 ft 450 kts 268°
2026-05-08 08:59 40.87005 0.57645 24623 ft 451 kts 268°
2026-05-08 08:59 40.87032 0.53494 24938 ft 453 kts 267°
2026-05-08 08:59 40.87055 0.49316 25251 ft 454 kts 267°
2026-05-08 09:00 40.87076 0.45147 25568 ft 455 kts 267°
2026-05-08 09:00 40.87096 0.41024 25977 ft 453 kts 267°
2026-05-08 09:00 40.87119 0.36866 26410 ft 451 kts 267°
2026-05-08 09:00 40.87142 0.32731 26863 ft 449 kts 267°
2026-05-08 09:01 40.87161 0.28605 27295 ft 448 kts 266°
2026-05-08 09:01 40.87176 0.24498 27715 ft 446 kts 266°
2026-05-08 09:01 40.87188 0.20413 28123 ft 444 kts 266°
2026-05-08 09:01 40.87198 0.16338 28535 ft 443 kts 266°
2026-05-08 09:02 40.87207 0.12276 28945 ft 442 kts 266°
2026-05-08 09:02 40.87217 0.08212 29342 ft 441 kts 266°
2026-05-08 09:02 40.87226 0.04173 29734 ft 439 kts 266°
2026-05-08 09:02 40.87235 0.00136 30100 ft 438 kts 266°
2026-05-08 09:03 40.87243 -0.03893 30410 ft 438 kts 266°
2026-05-08 09:03 40.87253 -0.07906 30749 ft 436 kts 266°
2026-05-08 09:03 40.87261 -0.11921 30958 ft 436 kts 265°
2026-05-08 09:03 40.87264 -0.15939 31001 ft 437 kts 265°
2026-05-08 09:04 40.87261 -0.23977 31000 ft 438 kts 265°
2026-05-08 09:04 40.87252 -0.31986 31000 ft 438 kts 265°
2026-05-08 09:05 40.87240 -0.40044 30999 ft 439 kts 265°
2026-05-08 09:05 40.87226 -0.48113 30998 ft 440 kts 265°
2026-05-08 09:06 40.87202 -0.56185 31328 ft 440 kts 265°
2026-05-08 09:06 40.87188 -0.60237 31586 ft 441 kts 265°
2026-05-08 09:06 40.87173 -0.64289 31843 ft 442 kts 265°
2026-05-08 09:07 40.87158 -0.68344 32100 ft 442 kts 265°
2026-05-08 09:07 40.87141 -0.72407 32369 ft 442 kts 265°
2026-05-08 09:07 40.87106 -0.76463 32628 ft 439 kts 261°
2026-05-08 09:07 40.86690 -0.80424 32891 ft 433 kts 252°
2026-05-08 09:08 40.84743 -0.87874 33001 ft 429 kts 245°
2026-05-08 09:08 40.82668 -0.95265 33009 ft 429 kts 245°
2026-05-08 09:09 40.80616 -1.02684 32998 ft 430 kts 246°
2026-05-08 09:09 40.78562 -1.10115 32996 ft 432 kts 246°
2026-05-08 09:10 40.76491 -1.17560 33005 ft 433 kts 245°
2026-05-08 09:10 40.74419 -1.24971 33013 ft 433 kts 245°
2026-05-08 09:11 40.72317 -1.32431 33007 ft 434 kts 245°
2026-05-08 09:11 40.70214 -1.39903 33018 ft 435 kts 245°
2026-05-08 09:12 40.68110 -1.47383 33006 ft 435 kts 245°
2026-05-08 09:12 40.65992 -1.54864 33007 ft 436 kts 245°
2026-05-08 09:13 40.63865 -1.62343 33005 ft 436 kts 245°
2026-05-08 09:13 40.61731 -1.69834 33007 ft 437 kts 245°
2026-05-08 09:14 40.59597 -1.77323 33013 ft 437 kts 245°
2026-05-08 09:14 40.57459 -1.84802 33016 ft 437 kts 244°
2026-05-08 09:15 40.55314 -1.92265 33011 ft 436 kts 244°
2026-05-08 09:15 40.53162 -1.99715 33015 ft 435 kts 243°
2026-05-08 09:16 40.50106 -2.06399 33017 ft 423 kts 225°
2026-05-08 09:16 40.45684 -2.11325 33018 ft 416 kts 211°
2026-05-08 09:17 40.40878 -2.15522 33013 ft 415 kts 211°
2026-05-08 09:17 40.36121 -2.19719 33014 ft 414 kts 212°
2026-05-08 09:18 40.31346 -2.23927 33015 ft 413 kts 212°
2026-05-08 09:18 40.26569 -2.28105 33014 ft 412 kts 212°
2026-05-08 09:19 40.21805 -2.32265 33011 ft 411 kts 212°
2026-05-08 09:19 40.17051 -2.36414 33004 ft 410 kts 212°
2026-05-08 09:20 40.12308 -2.40544 33001 ft 409 kts 212°
2026-05-08 09:20 40.07564 -2.44666 33000 ft 409 kts 212°
2026-05-08 09:21 40.02827 -2.48778 33000 ft 408 kts 212°
2026-05-08 09:23 39.86355 -2.63038 32998 ft 406 kts 212°
2026-05-08 09:23 39.81646 -2.67083 32993 ft 406 kts 212°
2026-05-08 09:24 39.76940 -2.71138 32992 ft 405 kts 212°
2026-05-08 09:24 39.72235 -2.75183 32987 ft 405 kts 212°
2026-05-08 09:25 39.67525 -2.79217 32985 ft 405 kts 212°
2026-05-08 09:25 39.62813 -2.83249 32985 ft 406 kts 212°
2026-05-08 09:26 39.58102 -2.87282 32986 ft 406 kts 212°
2026-05-08 09:26 39.53390 -2.91302 32978 ft 406 kts 213°
2026-05-08 09:27 39.48674 -2.95322 32975 ft 406 kts 213°
2026-05-08 09:27 39.43955 -2.99339 32972 ft 406 kts 213°
2026-05-08 09:28 39.39128 -3.03130 32965 ft 406 kts 205°
2026-05-08 09:28 39.33853 -3.05754 32966 ft 407 kts 202°
2026-05-08 09:29 39.28548 -3.08320 32962 ft 407 kts 202°
2026-05-08 09:29 39.23243 -3.10883 32960 ft 407 kts 202°
2026-05-08 09:30 39.17968 -3.13440 32958 ft 408 kts 202°
2026-05-08 09:30 39.12626 -3.16029 32956 ft 408 kts 203°
2026-05-08 09:31 39.07339 -3.18590 32953 ft 408 kts 203°
2026-05-08 09:31 39.02028 -3.21154 32960 ft 408 kts 203°
2026-05-08 09:32 38.96711 -3.23720 32956 ft 408 kts 203°
2026-05-08 09:32 38.92291 -3.25851 32954 ft 408 kts 204°
2026-05-08 09:33 38.86980 -3.28407 32954 ft 408 kts 204°
2026-05-08 09:33 38.81663 -3.30958 32957 ft 408 kts 204°
2026-05-08 09:34 38.76347 -3.33501 32959 ft 408 kts 204°
2026-05-08 09:34 38.71025 -3.36048 32958 ft 408 kts 204°
2026-05-08 09:35 38.65712 -3.38581 32962 ft 407 kts 204°
2026-05-08 09:35 38.60399 -3.41113 32959 ft 407 kts 205°
2026-05-08 09:36 38.55096 -3.43634 32960 ft 406 kts 205°
2026-05-08 09:36 38.49831 -3.46135 32961 ft 406 kts 205°
2026-05-08 09:37 38.44535 -3.48646 32960 ft 406 kts 205°
2026-05-08 09:37 38.39228 -3.51152 32957 ft 406 kts 205°
2026-05-08 09:38 38.33939 -3.53654 32959 ft 406 kts 205°
2026-05-08 09:38 38.28637 -3.56157 32957 ft 406 kts 205°
2026-05-08 09:39 38.23345 -3.58656 32963 ft 406 kts 205°
2026-05-08 09:39 38.18102 -3.61290 32939 ft 401 kts 212°
2026-05-08 09:40 38.13776 -3.65559 32953 ft 392 kts 231°
2026-05-08 09:40 38.10606 -3.71174 32953 ft 391 kts 237°
2026-05-08 09:41 38.07559 -3.76843 32951 ft 391 kts 237°
2026-05-08 09:41 38.06026 -3.79694 32745 ft 392 kts 237°
2026-05-08 09:41 38.04491 -3.82545 32260 ft 391 kts 237°
2026-05-08 09:41 38.02959 -3.85387 31800 ft 391 kts 237°
2026-05-08 09:42 38.01422 -3.88239 31347 ft 391 kts 237°
2026-05-08 09:42 37.99887 -3.91087 30899 ft 392 kts 237°
2026-05-08 09:42 37.98351 -3.93943 30464 ft 392 kts 237°
2026-05-08 09:42 37.96810 -3.96809 30049 ft 393 kts 237°
2026-05-08 09:43 37.95267 -3.99671 29580 ft 394 kts 237°
2026-05-08 09:43 37.93685 -4.02511 29093 ft 396 kts 232°
2026-05-08 09:43 37.91636 -4.04873 28624 ft 403 kts 218°
2026-05-08 09:43 37.89293 -4.06848 28154 ft 406 kts 218°
2026-05-08 09:44 37.86927 -4.08817 27649 ft 408 kts 218°
2026-05-08 09:44 37.84540 -4.10789 27135 ft 411 kts 217°
2026-05-08 09:44 37.82142 -4.12765 26639 ft 413 kts 217°
2026-05-08 09:44 37.79728 -4.14755 26123 ft 415 kts 217°
2026-05-08 09:45 37.77307 -4.16755 25630 ft 417 kts 217°
2026-05-08 09:45 37.74875 -4.18765 25137 ft 419 kts 217°
2026-05-08 09:45 37.72430 -4.20784 24648 ft 421 kts 217°
2026-05-08 09:45 37.69966 -4.22819 24182 ft 424 kts 217°
2026-05-08 09:46 37.67499 -4.24856 23712 ft 424 kts 217°
2026-05-08 09:46 37.65036 -4.26887 23201 ft 422 kts 217°
2026-05-08 09:46 37.62579 -4.28909 22663 ft 420 kts 217°
2026-05-08 09:46 37.60134 -4.30919 22102 ft 418 kts 217°
2026-05-08 09:47 37.57705 -4.32914 21554 ft 416 kts 217°
2026-05-08 09:47 37.55288 -4.34900 21003 ft 413 kts 217°
2026-05-08 09:47 37.52893 -4.36868 20390 ft 408 kts 217°
2026-05-08 09:47 37.50535 -4.38804 19808 ft 402 kts 216°
2026-05-08 09:48 37.48215 -4.40706 19201 ft 393 kts 216°
2026-05-08 09:48 37.45957 -4.42552 18589 ft 381 kts 216°
2026-05-08 09:48 37.43759 -4.44346 17936 ft 372 kts 216°
2026-05-08 09:48 37.41611 -4.46099 17224 ft 365 kts 216°
2026-05-08 09:49 37.39500 -4.47821 16525 ft 358 kts 216°
2026-05-08 09:49 37.37436 -4.49511 15832 ft 351 kts 216°
2026-05-08 09:49 37.35408 -4.51175 15237 ft 343 kts 215°
2026-05-08 09:49 37.33433 -4.52792 14676 ft 335 kts 215°
2026-05-08 09:50 37.31526 -4.54345 14128 ft 327 kts 215°
2026-05-08 09:50 37.29635 -4.55883 13585 ft 320 kts 214°
2026-05-08 09:50 37.27782 -4.57390 13148 ft 315 kts 214°
2026-05-08 09:50 37.25956 -4.58874 12759 ft 310 kts 214°
2026-05-08 09:51 37.24157 -4.60338 12369 ft 306 kts 214°
2026-05-08 09:51 37.22382 -4.61783 11981 ft 302 kts 214°
2026-05-08 09:51 37.20626 -4.63215 11604 ft 299 kts 214°
2026-05-08 09:51 37.18892 -4.64626 11240 ft 296 kts 214°
2026-05-08 09:52 37.17188 -4.66010 10981 ft 288 kts 214°
2026-05-08 09:52 37.15524 -4.67361 10739 ft 282 kts 214°
2026-05-08 09:52 37.13896 -4.68682 10494 ft 276 kts 214°
2026-05-08 09:52 37.12301 -4.69978 10253 ft 270 kts 214°
2026-05-08 09:53 37.10732 -4.71252 10014 ft 267 kts 214°
2026-05-08 09:53 37.09172 -4.72515 9769 ft 266 kts 214°
2026-05-08 09:53 37.07620 -4.73769 9502 ft 265 kts 214°
2026-05-08 09:53 37.06073 -4.75015 9244 ft 264 kts 214°
2026-05-08 09:54 37.04525 -4.76260 8985 ft 264 kts 214°
2026-05-08 09:54 37.02985 -4.77499 8705 ft 263 kts 214°
2026-05-08 09:54 37.01451 -4.78734 8393 ft 260 kts 213°
2026-05-08 09:54 36.99812 -4.79671 8088 ft 259 kts 198°
2026-05-08 09:55 36.98032 -4.80009 7770 ft 259 kts 182°
2026-05-08 09:55 36.96231 -4.79980 7481 ft 257 kts 181°
2026-05-08 09:55 36.94492 -4.79953 7290 ft 250 kts 181°
2026-05-08 09:55 36.92784 -4.79723 7068 ft 247 kts 168°
2026-05-08 09:56 36.91147 -4.79049 6750 ft 248 kts 164°
2026-05-08 09:56 36.89522 -4.78339 6453 ft 246 kts 163°
2026-05-08 09:56 36.87914 -4.77636 6203 ft 242 kts 163°
2026-05-08 09:56 36.86387 -4.76853 5999 ft 234 kts 155°
2026-05-08 09:57 36.83601 -4.74969 5317 ft 224 kts 154°
2026-05-08 09:57 36.82248 -4.74058 4914 ft 217 kts 154°
2026-05-08 09:57 36.80950 -4.73184 4544 ft 207 kts 153°
2026-05-08 09:58 36.79722 -4.72355 4133 ft 196 kts 152°
2026-05-08 09:58 36.78545 -4.71559 3786 ft 190 kts 152°
2026-05-08 09:58 36.77528 -4.70569 3527 ft 182 kts 135°
2026-05-08 09:58 36.76821 -4.69276 3299 ft 181 kts 120°
2026-05-08 09:59 36.76255 -4.67877 3075 ft 180 kts 119°
2026-05-08 09:59 36.75690 -4.66499 2834 ft 179 kts 120°
2026-05-08 09:59 36.75119 -4.65127 2587 ft 177 kts 119°
2026-05-08 09:59 36.74573 -4.63816 2403 ft 163 kts 119°
2026-05-08 10:00 36.74059 -4.62590 2168 ft 157 kts 118°
2026-05-08 10:00 36.73555 -4.61385 1955 ft 157 kts 119°
2026-05-08 10:00 36.73055 -4.60214 1743 ft 150 kts 120°
2026-05-08 10:00 36.72581 -4.59080 1542 ft 146 kts 118°
2026-05-08 10:01 36.72110 -4.57950 1356 ft 147 kts 118°
2026-05-08 10:01 36.71639 -4.56824 1190 ft 147 kts 118°
2026-05-08 10:01 36.71171 -4.55699 971 ft 145 kts 117°
2026-05-08 10:01 36.70703 -4.54586 773 ft 144 kts 118°
2026-05-08 10:02 36.70233 -4.53469 629 ft 148 kts 117°
2026-05-08 10:02 36.69764 -4.52347 378 ft 144 kts 116°
2026-05-08 10:02 36.69300 -4.51245 167 ft 144 kts 117°
2026-05-08 10:02 36.68850 -4.50177 50 ft 130 kts 116°
2026-05-08 10:03 36.68498 -4.49337 47 ft 82 kts 117°
2026-05-08 10:03 36.68325 -4.48988 44 ft 37 kts 136°
2026-05-08 10:03 36.68200 -4.48872 40 ft 9 kts 148°
2026-05-08 10:03 36.68142 -4.48864 39 ft 9 kts 212°
2026-05-08 10:04 36.68142 -4.48929 37 ft 10 kts 295°
2026-05-08 10:04 36.68180 -4.49020 40 ft 13 kts 297°
2026-05-08 10:04 36.68222 -4.49123 40 ft 14 kts 297°
2026-05-08 10:04 36.68265 -4.49228 39 ft 14 kts 297°
2026-05-08 10:05 36.68264 -4.49335 38 ft 14 kts 229°
2026-05-08 10:05 36.68193 -4.49415 42 ft 13 kts 221°
2026-05-08 10:05 36.68125 -4.49491 42 ft 14 kts 221°
2026-05-08 10:05 36.68047 -4.49561 42 ft 14 kts 192°
2026-05-08 10:06 36.67972 -4.49497 42 ft 14 kts 131°
2026-05-08 10:06 36.67934 -4.49466 42 ft 4 kts 189°
2026-05-08 10:06 36.67903 -4.49486 42 ft 6 kts 212°
2026-05-08 10:06 36.67894 -4.49493 42 ft 0 kts 213°